Greenville, AL

6:58 AM CST on February 26, 2017 (GMT -0600)
Greenville Municipal

Weather History for KPRN - September, 2011

Change the Weather History Date:

Thursday, September 29, 2011

  Actual Average Record
Temperature  
Mean Temperature 74 °F -  
Max Temperature 84 °F 83 °F 95 °F (1986)
Min Temperature 64 °F 60 °F 38 °F (1967)
Cooling Degree Days 9    
Growing Degree Days 24 (Base 50)    
Moisture  
Dew Point 64 °F    
Average Humidity 84    
Maximum Humidity 100    
Minimum Humidity 38    
Precipitation  
Precipitation 0.00 in - - ()
Sea Level Pressure  
Sea Level Pressure 29.90 in    
Wind  
Wind Speed 2 mph (NNW)    
Max Wind Speed 9 mph    
Max Gust Speed -    
Visibility 6 miles    
Events Fog    
Averages and records for this station are not official NWS values.
T = Trace of Precipitation, MM = Missing Value Source: NWS Daily Summary

Daily Weather History Graph

Daily Weather History Graph

Search for Another Location

Airport or City:

Trip Planner

Search our weather history database for the weather conditions in past years. The results will help you decide how hot, cold, wet, or windy it might be!

Date:

Astronomy

Sep. 29, 2011 Rise Set
Actual Time 6:38 AM CDT 6:34 PM CDT
Civil Twilight 6:14 AM CDT 6:58 PM CDT
Nautical Twilight 5:46 AM CDT 7:26 PM CDT
Astronomical Twilight 5:17 AM CDT 7:55 PM CDT
Moon 9:08 AM CDT (9/29) 8:02 PM CDT (9/29)
Length of Visible Light 12h 44m
Length of Day
11h 55m
Waxing Crescent, 7% of the Moon is Illuminated
Sep 29
Waxing Crescent
Oct 3
First Quarter
Oct 11
Full
Oct 19
Last Quarter
Oct 26
New

Hourly Weather History & Observations

Time (CDT) Temp. Heat Index Dew Point Humidity Pressure Visibility Wind Dir Wind Speed Gust Speed Precip Events Conditions
12:15 AM 66.0 °F - 64.0 °F 93% 29.91 in 1.8 mi Calm Calm - N/A   Clear
12:25 AM 64.9 °F - 64.0 °F 97% 29.90 in 1.0 mi Calm Calm - N/A   Mist
12:35 AM 64.9 °F - 64.0 °F 97% 29.90 in 0.5 mi ESE 3.5 mph - N/A Fog Fog
12:49 AM 64.9 °F - 64.9 °F 100% 29.91 in 1.8 mi SSE 3.5 mph - N/A   Overcast
12:56 AM 66.0 °F - 64.9 °F 96% 29.89 in 3.0 mi Calm Calm - N/A   Overcast
1:30 AM 66.0 °F - 64.9 °F 96% 29.90 in 7.0 mi Calm Calm - N/A   Scattered Clouds
1:54 AM 64.9 °F - 64.0 °F 97% 29.90 in 2.5 mi North 4.6 mph - N/A   Clear
1:56 AM 64.9 °F - 64.0 °F 97% 29.89 in 3.0 mi North 4.6 mph - N/A   Clear
2:05 AM 64.9 °F - 64.0 °F 97% 29.90 in 2.5 mi North 3.5 mph - N/A   Partly Cloudy
2:11 AM 64.9 °F - 64.0 °F 97% 29.90 in 1.0 mi North 3.5 mph - N/A   Mist
2:19 AM 64.9 °F - 64.0 °F 97% 29.90 in 0.5 mi North 3.5 mph - N/A Fog Fog
2:30 AM 64.9 °F - 64.0 °F 97% 29.89 in 2.0 mi NNW 5.8 mph - N/A   Overcast
2:38 AM 64.9 °F - 64.9 °F 100% 29.89 in 9.0 mi NNW 6.9 mph - N/A   Overcast
2:56 AM 66.0 °F - 64.9 °F 96% 29.88 in 7.0 mi North 4.6 mph - N/A   Overcast
3:56 AM 66.9 °F - 66.0 °F 97% 29.89 in 8.0 mi Calm Calm - N/A   Overcast
4:56 AM 66.9 °F - 64.9 °F 93% 29.90 in 8.0 mi North 3.5 mph - N/A   Overcast
5:56 AM 66.0 °F - 64.9 °F 96% 29.91 in 2.5 mi Calm Calm - 0.00 in   Overcast
6:05 AM 66.0 °F - 64.9 °F 96% 29.93 in 3.0 mi SSE 3.5 mph - N/A   Overcast
6:56 AM 66.0 °F - 64.9 °F 96% 29.92 in 3.0 mi Calm Calm - 0.00 in   Overcast
7:56 AM 66.9 °F - 64.9 °F 93% 29.94 in 4.0 mi South 3.5 mph - N/A   Overcast
8:56 AM 68.0 °F - 64.9 °F 90% 29.95 in 7.0 mi Calm Calm - N/A   Overcast
9:39 AM 72.0 °F - 64.9 °F 78% 29.96 in 10.0 mi Calm Calm - N/A   Scattered Clouds
9:56 AM 73.0 °F - 66.0 °F 79% 29.96 in 10.0 mi Calm Calm - N/A   Clear
10:56 AM 77.0 °F - 66.9 °F 71% 29.94 in 10.0 mi Calm Calm - N/A   Clear
11:56 AM 81.0 °F 82.5 °F 64.0 °F 56% 29.93 in 10.0 mi Calm Calm - N/A   Clear
12:56 PM 82.0 °F 83.0 °F 62.1 °F 51% 29.92 in 10.0 mi WNW 3.5 mph - N/A   Partly Cloudy
1:56 PM 82.9 °F 83.3 °F 61.0 °F 47% 29.89 in 10.0 mi NNE 4.6 mph - N/A   Mostly Cloudy
2:56 PM 84.0 °F 84.4 °F 61.0 °F 46% 29.88 in 10.0 mi NW 9.2 mph - N/A   Partly Cloudy
3:56 PM 84.0 °F 83.0 °F 55.9 °F 38% 29.87 in 10.0 mi North 3.5 mph - N/A   Clear
4:56 PM 81.0 °F 81.6 °F 60.1 °F 49% 29.86 in 10.0 mi West 4.6 mph - N/A   Clear
5:56 PM 78.1 °F - 63.0 °F 60% 29.86 in 10.0 mi West 4.6 mph - N/A   Clear
6:56 PM 75.0 °F - 64.0 °F 69% 29.86 in 10.0 mi Calm Calm - N/A   Clear
7:56 PM 71.1 °F - 64.9 °F 81% 29.88 in 10.0 mi Calm Calm - N/A   Clear
8:56 PM 69.1 °F - 64.9 °F 87% 29.90 in 10.0 mi Calm Calm - N/A   Clear
9:56 PM 69.1 °F - 64.9 °F 87% 29.91 in 10.0 mi Calm Calm - N/A   Clear
10:56 PM 66.0 °F - 63.0 °F 90% 29.90 in 10.0 mi Calm Calm - N/A   Clear
11:56 PM 64.9 °F - 62.1 °F 90% 29.89 in 10.0 mi Calm Calm - N/A   Clear